UAL1906 MZBZ-KDEN

Flight info

Callsign UAL1906
Flight time 3h 53m
Altitude 32000
Route LITRA1E LITRA UR899 CTM UJ26 MID UL208 ODKOT/N0476F340 UL208 DUTNA L208 PEGLG DCT MUSYL DCT LUKKN DCT CHEVE DCT DARRB DCT VAYTU DCT ODOYU DCT IPIME DCT ZIGEE NIIXX4
Aircraft B738/M-SDE2E3FGHIRWXY/LB1

Departure

Time 2026-05-05 13:44
Airport Philip S. W. Goldson International Airport (MZBZ)

Arrival

Time 2026-05-05 17:37
Airport Denver International Airport (KDEN)
Time Latitude Longitude Altitude Speed Heading
2026-05-05 13:26 17.53669 -88.30840 25 ft 0 kts 168°
2026-05-05 13:38 17.53672 -88.30841 25 ft 3 kts 168°
2026-05-05 13:38 17.53678 -88.30843 30 ft 4 kts 167°
2026-05-05 13:38 17.53705 -88.30847 25 ft 4 kts 177°
2026-05-05 13:38 17.53732 -88.30846 28 ft 4 kts 190°
2026-05-05 13:39 17.53752 -88.30840 29 ft 1 kts 203°
2026-05-05 13:39 17.53756 -88.30839 28 ft 1 kts 203°
2026-05-05 13:41 17.53729 -88.30873 55 ft 15 kts 248°
2026-05-05 13:41 17.53701 -88.30988 24 ft 16 kts 256°
2026-05-05 13:41 17.53676 -88.31102 24 ft 16 kts 257°
2026-05-05 13:41 17.53643 -88.31257 21 ft 25 kts 257°
2026-05-05 13:42 17.53607 -88.31428 20 ft 23 kts 257°
2026-05-05 13:42 17.53571 -88.31590 21 ft 22 kts 257°
2026-05-05 13:42 17.53553 -88.31745 30 ft 21 kts 299°
2026-05-05 13:42 17.53674 -88.31793 27 ft 10 kts 352°
2026-05-05 13:43 17.53699 -88.31767 25 ft 3 kts 73°
2026-05-05 13:43 17.53754 -88.31525 24 ft 69 kts 77°
2026-05-05 13:43 17.53914 -88.30805 27 ft 131 kts 77°
2026-05-05 13:43 17.54150 -88.29715 173 ft 169 kts 78°
2026-05-05 13:44 17.54393 -88.28494 802 ft 173 kts 79°
2026-05-05 13:44 17.54631 -88.27233 1625 ft 171 kts 79°
2026-05-05 13:44 17.55245 -88.26033 1863 ft 209 kts 50°
2026-05-05 13:44 17.56367 -88.24961 2026 ft 234 kts 39°
2026-05-05 13:45 17.57792 -88.24000 2288 ft 257 kts 22°
2026-05-05 13:45 17.59619 -88.23722 2707 ft 275 kts
2026-05-05 13:45 17.61559 -88.23696 3474 ft 278 kts
2026-05-05 13:45 17.63486 -88.23666 4411 ft 276 kts
2026-05-05 13:46 17.65413 -88.23614 5168 ft 280 kts
2026-05-05 13:46 17.67368 -88.23548 5913 ft 282 kts
2026-05-05 13:46 17.69339 -88.23475 6686 ft 284 kts
2026-05-05 13:46 17.71322 -88.23416 7403 ft 286 kts 360°
2026-05-05 13:47 17.73319 -88.23639 8096 ft 291 kts 351°
2026-05-05 13:47 17.75318 -88.24026 8787 ft 295 kts 350°
2026-05-05 13:47 17.77343 -88.24449 9502 ft 297 kts 350°
2026-05-05 13:47 17.79380 -88.24872 10190 ft 301 kts 351°
2026-05-05 13:48 17.81491 -88.25298 10497 ft 319 kts 351°
2026-05-05 13:48 17.83745 -88.25743 10654 ft 340 kts 351°
2026-05-05 13:48 17.86135 -88.26207 10796 ft 359 kts 351°
2026-05-05 13:48 17.88663 -88.26691 10931 ft 377 kts 350°
2026-05-05 13:49 17.91298 -88.27193 11052 ft 393 kts 351°
2026-05-05 13:49 17.94027 -88.27711 11316 ft 402 kts 350°
2026-05-05 13:49 17.96790 -88.28235 11799 ft 405 kts 350°
2026-05-05 13:49 17.99568 -88.28760 12371 ft 405 kts 350°
2026-05-05 13:50 18.02343 -88.29286 12885 ft 406 kts 350°
2026-05-05 13:50 18.05131 -88.29813 13392 ft 408 kts 350°
2026-05-05 13:50 18.07930 -88.30343 13844 ft 410 kts 350°
2026-05-05 13:50 18.10745 -88.30876 14265 ft 411 kts 350°
2026-05-05 13:51 18.13563 -88.31409 14701 ft 413 kts 350°
2026-05-05 13:51 18.16400 -88.31947 15063 ft 416 kts 350°
2026-05-05 13:51 18.19216 -88.32480 15460 ft 417 kts 350°
2026-05-05 13:51 18.22131 -88.32961 15808 ft 420 kts 355°
2026-05-05 13:52 18.25014 -88.33104 16190 ft 421 kts 359°
2026-05-05 13:52 18.27954 -88.33105 16552 ft 423 kts
2026-05-05 13:52 18.30906 -88.33084 16904 ft 425 kts
2026-05-05 13:52 18.33877 -88.33087 17235 ft 427 kts 359°
2026-05-05 13:53 18.36861 -88.33119 17588 ft 429 kts 359°
2026-05-05 13:53 18.39850 -88.33173 17925 ft 431 kts 359°
2026-05-05 13:53 18.42860 -88.33235 18271 ft 433 kts 359°
2026-05-05 13:53 18.45872 -88.33298 18580 ft 433 kts 359°
2026-05-05 13:54 18.48884 -88.33477 18850 ft 435 kts 352°
2026-05-05 13:54 18.51846 -88.34157 19100 ft 438 kts 343°
2026-05-05 13:54 18.54701 -88.35305 19345 ft 441 kts 335°
2026-05-05 13:54 18.57435 -88.36767 19608 ft 442 kts 334°
2026-05-05 13:55 18.60176 -88.38267 19851 ft 445 kts 333°
2026-05-05 13:55 18.62925 -88.39774 20148 ft 445 kts 333°
2026-05-05 13:55 18.65679 -88.41275 20509 ft 444 kts 334°
2026-05-05 13:55 18.68429 -88.42764 20787 ft 445 kts 334°
2026-05-05 13:56 18.71198 -88.44255 21009 ft 448 kts 334°
2026-05-05 13:56 18.73984 -88.45750 21240 ft 450 kts 334°
2026-05-05 13:56 18.76748 -88.47231 21481 ft 452 kts 334°
2026-05-05 13:56 18.79561 -88.48738 21732 ft 453 kts 334°
2026-05-05 13:57 18.82375 -88.50246 21982 ft 455 kts 334°
2026-05-05 13:57 18.85203 -88.51763 22192 ft 457 kts 334°
2026-05-05 13:57 18.88045 -88.53289 22408 ft 459 kts 334°
2026-05-05 13:57 18.90894 -88.54818 22624 ft 460 kts 334°
2026-05-05 13:58 18.93751 -88.56354 22837 ft 462 kts 334°
2026-05-05 13:58 18.96626 -88.57899 23056 ft 463 kts 334°
2026-05-05 13:58 18.99505 -88.59447 23252 ft 465 kts 334°
2026-05-05 13:58 19.02393 -88.61000 23445 ft 467 kts 334°
2026-05-05 13:59 19.08206 -88.64129 23790 ft 469 kts 334°
2026-05-05 13:59 19.11117 -88.65696 23973 ft 470 kts 334°
2026-05-05 14:00 19.16942 -88.68836 24404 ft 470 kts 334°
2026-05-05 14:00 19.18869 -88.69875 24514 ft 470 kts 334°
2026-05-05 14:00 19.22743 -88.71965 24709 ft 472 kts 334°
2026-05-05 14:00 19.25669 -88.73543 24866 ft 473 kts 334°
2026-05-05 14:01 19.28605 -88.75132 25022 ft 474 kts 334°
2026-05-05 14:01 19.31542 -88.76725 25177 ft 475 kts 334°
2026-05-05 14:01 19.34482 -88.78323 25329 ft 476 kts 334°
2026-05-05 14:01 19.37432 -88.79926 25476 ft 477 kts 334°
2026-05-05 14:02 19.40383 -88.81531 25629 ft 478 kts 334°
2026-05-05 14:02 19.43345 -88.83142 25775 ft 478 kts 334°
2026-05-05 14:02 19.46307 -88.84754 25926 ft 479 kts 334°
2026-05-05 14:02 19.49273 -88.86368 26086 ft 479 kts 333°
2026-05-05 14:03 19.52238 -88.87982 26291 ft 479 kts 333°
2026-05-05 14:03 19.55199 -88.89595 26513 ft 478 kts 333°
2026-05-05 14:03 19.58153 -88.91204 26719 ft 477 kts 333°
2026-05-05 14:03 19.61108 -88.92815 26922 ft 477 kts 333°
2026-05-05 14:04 19.64061 -88.94426 27134 ft 477 kts 333°
2026-05-05 14:04 19.67004 -88.96032 27365 ft 476 kts 333°
2026-05-05 14:04 19.69948 -88.97639 27601 ft 475 kts 333°
2026-05-05 14:04 19.72884 -88.99241 27821 ft 475 kts 333°
2026-05-05 14:05 19.75815 -89.00843 28066 ft 474 kts 333°
2026-05-05 14:05 19.78752 -89.02443 28307 ft 474 kts 333°
2026-05-05 14:05 19.81689 -89.04039 28528 ft 474 kts 334°
2026-05-05 14:05 19.84625 -89.05633 28696 ft 475 kts 334°
2026-05-05 14:06 19.87539 -89.07216 28911 ft 475 kts 334°
2026-05-05 14:06 19.90478 -89.08814 29191 ft 474 kts 334°
2026-05-05 14:06 19.93410 -89.10409 29472 ft 473 kts 334°
2026-05-05 14:06 19.96341 -89.12005 29726 ft 473 kts 334°
2026-05-05 14:07 19.99266 -89.13599 29971 ft 473 kts 334°
2026-05-05 14:07 20.02192 -89.15194 30202 ft 472 kts 334°
2026-05-05 14:07 20.05116 -89.16789 30452 ft 471 kts 333°
2026-05-05 14:07 20.08027 -89.18378 30733 ft 469 kts 333°
2026-05-05 14:08 20.10928 -89.19961 31008 ft 468 kts 333°
2026-05-05 14:08 20.13823 -89.21542 31290 ft 467 kts 333°
2026-05-05 14:08 20.16712 -89.23120 31544 ft 466 kts 333°
2026-05-05 14:08 20.19596 -89.24696 31789 ft 465 kts 333°
2026-05-05 14:09 20.22472 -89.26272 31998 ft 465 kts 333°
2026-05-05 14:09 20.25354 -89.27856 31970 ft 467 kts 333°
2026-05-05 14:09 20.31108 -89.31025 31977 ft 464 kts 333°
2026-05-05 14:10 20.36790 -89.34156 31984 ft 462 kts 333°
2026-05-05 14:10 20.42492 -89.37299 31986 ft 461 kts 333°
2026-05-05 14:11 20.48183 -89.40439 31977 ft 460 kts 333°
2026-05-05 14:11 20.53861 -89.43575 31980 ft 460 kts 333°
2026-05-05 14:12 20.59554 -89.46716 31980 ft 461 kts 333°
2026-05-05 14:12 20.65262 -89.49855 31983 ft 462 kts 333°
2026-05-05 14:13 20.70986 -89.53005 31981 ft 463 kts 333°
2026-05-05 14:13 20.76721 -89.56166 31975 ft 464 kts 333°
2026-05-05 14:14 20.82467 -89.59337 31984 ft 465 kts 333°
2026-05-05 14:14 20.88224 -89.62517 31973 ft 466 kts 333°
2026-05-05 14:15 20.93979 -89.65688 31971 ft 465 kts 334°
2026-05-05 14:15 20.99884 -89.68516 31977 ft 465 kts 337°
2026-05-05 14:16 21.05845 -89.71183 31974 ft 464 kts 337°
2026-05-05 14:16 21.11792 -89.73888 31974 ft 464 kts 337°
2026-05-05 14:17 21.17714 -89.76622 31989 ft 463 kts 336°
2026-05-05 14:17 21.23576 -89.79336 31969 ft 461 kts 336°
2026-05-05 14:18 21.29453 -89.82054 31977 ft 459 kts 336°
2026-05-05 14:18 21.35316 -89.84749 31977 ft 458 kts 336°
2026-05-05 14:19 21.41161 -89.87431 31982 ft 457 kts 336°
2026-05-05 14:19 21.47000 -89.90116 31977 ft 456 kts 336°
2026-05-05 14:20 21.52825 -89.92798 31981 ft 456 kts 336°
2026-05-05 14:20 21.58654 -89.95485 31982 ft 456 kts 336°
2026-05-05 14:21 21.64487 -89.98176 31980 ft 456 kts 336°
2026-05-05 14:21 21.70331 -90.00874 31972 ft 458 kts 336°
2026-05-05 14:22 21.75200 -90.03127 31978 ft 459 kts 336°
2026-05-05 14:22 21.82047 -90.06301 31998 ft 461 kts 336°
2026-05-05 14:23 21.86992 -90.08597 31986 ft 462 kts 336°
2026-05-05 14:23 21.92892 -90.11338 31978 ft 461 kts 336°
2026-05-05 14:24 21.98778 -90.14075 31987 ft 460 kts 336°
2026-05-05 14:24 22.04654 -90.16809 31981 ft 460 kts 336°
2026-05-05 14:25 22.10480 -90.19523 31987 ft 459 kts 336°
2026-05-05 14:25 22.16342 -90.22256 31991 ft 458 kts 336°
2026-05-05 14:26 22.22185 -90.24983 31983 ft 457 kts 336°
2026-05-05 14:26 22.28012 -90.27705 31980 ft 455 kts 336°
2026-05-05 14:27 22.33732 -90.30379 31985 ft 454 kts 336°
2026-05-05 14:27 22.39530 -90.33095 31980 ft 454 kts 336°
2026-05-05 14:28 22.45318 -90.35813 31987 ft 454 kts 336°
2026-05-05 14:28 22.48222 -90.37177 32135 ft 456 kts 336°
2026-05-05 14:28 22.51126 -90.38540 32432 ft 454 kts 336°
2026-05-05 14:29 22.53790 -90.39793 32718 ft 452 kts 336°
2026-05-05 14:29 22.56663 -90.41144 33043 ft 450 kts 336°
2026-05-05 14:29 22.59527 -90.42493 33372 ft 448 kts 336°
2026-05-05 14:29 22.62382 -90.43839 33663 ft 446 kts 336°
2026-05-05 14:30 22.65224 -90.45179 33935 ft 444 kts 336°
2026-05-05 14:30 22.68046 -90.46511 33965 ft 444 kts 336°
2026-05-05 14:30 22.73731 -90.49196 33983 ft 446 kts 336°
2026-05-05 14:31 22.79415 -90.51882 34005 ft 445 kts 335°
2026-05-05 14:31 22.85089 -90.54566 33980 ft 444 kts 335°
2026-05-05 14:32 22.90739 -90.57241 33979 ft 443 kts 335°
2026-05-05 14:32 22.96380 -90.59914 33987 ft 442 kts 335°
2026-05-05 14:33 23.01977 -90.62569 33981 ft 441 kts 335°
2026-05-05 14:33 23.07601 -90.65239 33985 ft 441 kts 335°
2026-05-05 14:34 23.13213 -90.67906 34004 ft 440 kts 335°
2026-05-05 14:34 23.18818 -90.70572 33983 ft 439 kts 335°
2026-05-05 14:35 23.24416 -90.73238 33987 ft 439 kts 335°
2026-05-05 14:35 23.30004 -90.75900 33987 ft 438 kts 335°
2026-05-05 14:36 23.35599 -90.78561 33982 ft 438 kts 335°
2026-05-05 14:36 23.41195 -90.81222 33999 ft 439 kts 335°
2026-05-05 14:37 23.46756 -90.83869 33999 ft 439 kts 334°
2026-05-05 14:37 23.52360 -90.86540 33989 ft 439 kts 334°
2026-05-05 14:38 23.57956 -90.89211 33988 ft 439 kts 334°
2026-05-05 14:38 23.63553 -90.91884 33991 ft 439 kts 334°
2026-05-05 14:39 23.69154 -90.94561 33988 ft 439 kts 334°
2026-05-05 14:39 23.74752 -90.97240 34003 ft 439 kts 334°
2026-05-05 14:40 23.80341 -90.99917 33996 ft 438 kts 334°
2026-05-05 14:40 23.85887 -91.02576 33990 ft 438 kts 334°
2026-05-05 14:41 23.91459 -91.05250 33990 ft 437 kts 334°
2026-05-05 14:41 23.97028 -91.07925 33992 ft 437 kts 334°
2026-05-05 14:42 24.02595 -91.10602 33991 ft 437 kts 334°
2026-05-05 14:42 24.08158 -91.13279 34008 ft 437 kts 334°
2026-05-05 14:43 24.13718 -91.15958 33993 ft 436 kts 333°
2026-05-05 14:43 24.19274 -91.18637 33998 ft 436 kts 333°
2026-05-05 14:44 24.24829 -91.21318 33999 ft 436 kts 333°
2026-05-05 14:44 24.30382 -91.24001 33995 ft 436 kts 333°
2026-05-05 14:45 24.35938 -91.26686 33994 ft 436 kts 333°
2026-05-05 14:45 24.41459 -91.29359 34004 ft 436 kts 333°
2026-05-05 14:46 24.47017 -91.32052 33993 ft 437 kts 333°
2026-05-05 14:46 24.52475 -91.34937 33998 ft 434 kts 328°
2026-05-05 14:47 24.57687 -91.38293 33994 ft 434 kts 327°
2026-05-05 14:47 24.62868 -91.41698 33995 ft 434 kts 327°
2026-05-05 14:48 24.68073 -91.45082 33994 ft 434 kts 327°
2026-05-05 14:48 24.73288 -91.48445 33994 ft 435 kts 327°
2026-05-05 14:49 24.78505 -91.51802 33998 ft 435 kts 327°
2026-05-05 14:49 24.83730 -91.55166 33987 ft 435 kts 327°
2026-05-05 14:50 24.88957 -91.58537 33998 ft 436 kts 327°
2026-05-05 14:50 24.94200 -91.61921 33995 ft 437 kts 327°
2026-05-05 14:51 24.99452 -91.65314 33995 ft 437 kts 327°
2026-05-05 14:51 25.04667 -91.68687 33994 ft 438 kts 326°
2026-05-05 14:52 25.09928 -91.72094 33991 ft 438 kts 326°
2026-05-05 14:52 25.15190 -91.75504 33992 ft 438 kts 326°
2026-05-05 14:53 25.20447 -91.78914 33991 ft 438 kts 326°
2026-05-05 14:53 25.25703 -91.82327 33994 ft 438 kts 326°
2026-05-05 14:54 25.30964 -91.85748 33992 ft 438 kts 326°
2026-05-05 14:54 25.36223 -91.89170 33996 ft 439 kts 326°
2026-05-05 14:55 25.41483 -91.92596 33991 ft 439 kts 327°
2026-05-05 14:55 25.46706 -91.96001 33988 ft 438 kts 327°
2026-05-05 14:56 25.51958 -91.99429 33988 ft 438 kts 327°
2026-05-05 14:56 25.57212 -92.02862 33989 ft 438 kts 327°
2026-05-05 14:57 25.62459 -92.06294 33991 ft 438 kts 327°
2026-05-05 14:57 25.67703 -92.09728 33994 ft 438 kts 326°
2026-05-05 14:58 25.72958 -92.13172 33985 ft 439 kts 326°
2026-05-05 14:58 25.78215 -92.16622 33985 ft 439 kts 326°
2026-05-05 14:59 25.83446 -92.20057 33984 ft 439 kts 326°
2026-05-05 14:59 25.88709 -92.23517 33988 ft 439 kts 326°
2026-05-05 15:00 25.93076 -92.26392 33990 ft 439 kts 326°
2026-05-05 15:00 25.99210 -92.30432 33986 ft 436 kts 326°
2026-05-05 15:01 26.04383 -92.33843 33972 ft 433 kts 326°
2026-05-05 15:01 26.09554 -92.37257 33985 ft 431 kts 326°
2026-05-05 15:02 26.14701 -92.40659 33992 ft 429 kts 326°
2026-05-05 15:02 26.19830 -92.44053 33978 ft 428 kts 326°
2026-05-05 15:03 26.24949 -92.47443 33996 ft 428 kts 326°
2026-05-05 15:03 26.30063 -92.50834 33979 ft 427 kts 326°
2026-05-05 15:04 26.35166 -92.54220 33981 ft 427 kts 326°
2026-05-05 15:04 26.40259 -92.57604 33982 ft 426 kts 326°
2026-05-05 15:05 26.47903 -92.62689 33977 ft 426 kts 326°
2026-05-05 15:06 26.53006 -92.66088 33978 ft 427 kts 326°
2026-05-05 15:06 26.58107 -92.69490 33983 ft 427 kts 325°
2026-05-05 15:07 26.63175 -92.72873 33974 ft 427 kts 325°
2026-05-05 15:07 26.68274 -92.76280 33973 ft 427 kts 325°
2026-05-05 15:08 26.73374 -92.79692 33972 ft 427 kts 325°
2026-05-05 15:08 26.78474 -92.83107 33973 ft 427 kts 325°
2026-05-05 15:09 26.83295 -92.86918 33981 ft 423 kts 317°
2026-05-05 15:09 26.87800 -92.91147 33975 ft 422 kts 317°
2026-05-05 15:10 26.92302 -92.95390 33965 ft 422 kts 317°
2026-05-05 15:10 26.96815 -92.99607 33970 ft 422 kts 317°
2026-05-05 15:11 27.00566 -93.03098 33970 ft 422 kts 317°
2026-05-05 15:11 27.05087 -93.07303 33967 ft 422 kts 317°
2026-05-05 15:12 27.09600 -93.11505 33963 ft 421 kts 317°
2026-05-05 15:12 27.14112 -93.15710 33981 ft 421 kts 317°
2026-05-05 15:13 27.19349 -93.20598 33961 ft 421 kts 317°
2026-05-05 15:13 27.23120 -93.24121 33957 ft 421 kts 317°
2026-05-05 15:14 27.27620 -93.28329 33962 ft 420 kts 317°
2026-05-05 15:14 27.32084 -93.32509 33962 ft 420 kts 317°
2026-05-05 15:15 27.36580 -93.36723 33955 ft 420 kts 317°
2026-05-05 15:15 27.41073 -93.40940 33955 ft 420 kts 317°
2026-05-05 15:16 27.45566 -93.45160 33965 ft 421 kts 317°
2026-05-05 15:16 27.50070 -93.49395 33961 ft 422 kts 317°
2026-05-05 15:17 27.54573 -93.53635 33947 ft 422 kts 316°
2026-05-05 15:17 27.59073 -93.57876 33951 ft 422 kts 316°
2026-05-05 15:18 27.63575 -93.62124 33953 ft 422 kts 316°
2026-05-05 15:18 27.68081 -93.66380 33950 ft 422 kts 316°
2026-05-05 15:19 27.72583 -93.70637 33948 ft 422 kts 316°
2026-05-05 15:19 27.77078 -93.74892 33951 ft 422 kts 316°
2026-05-05 15:20 27.81545 -93.79125 33947 ft 422 kts 316°
2026-05-05 15:20 27.86039 -93.83388 33949 ft 421 kts 316°
2026-05-05 15:21 27.90521 -93.87646 33942 ft 420 kts 316°
2026-05-05 15:21 27.94994 -93.91900 33948 ft 420 kts 316°
2026-05-05 15:22 27.99463 -93.96154 33944 ft 419 kts 316°
2026-05-05 15:22 28.03923 -94.00405 33947 ft 419 kts 316°
2026-05-05 15:23 28.08375 -94.04654 33936 ft 418 kts 316°
2026-05-05 15:23 28.12819 -94.08899 33941 ft 417 kts 315°
2026-05-05 15:24 28.17254 -94.13140 33939 ft 417 kts 315°
2026-05-05 15:24 28.21693 -94.17377 33938 ft 417 kts 316°
2026-05-05 15:25 28.26101 -94.21586 33938 ft 417 kts 315°
2026-05-05 15:25 28.30537 -94.25828 33960 ft 417 kts 315°
2026-05-05 15:26 28.34975 -94.30077 33939 ft 416 kts 315°
2026-05-05 15:26 28.39394 -94.34314 33930 ft 416 kts 315°
2026-05-05 15:27 28.43809 -94.38552 33931 ft 415 kts 315°
2026-05-05 15:27 28.48217 -94.42788 33929 ft 415 kts 315°
2026-05-05 15:28 28.52626 -94.47029 33929 ft 415 kts 315°
2026-05-05 15:28 28.57007 -94.51250 33929 ft 415 kts 315°
2026-05-05 15:29 28.61416 -94.55500 33927 ft 415 kts 314°
2026-05-05 15:29 28.65813 -94.59744 33922 ft 414 kts 314°
2026-05-05 15:30 28.70204 -94.63988 33926 ft 414 kts 314°
2026-05-05 15:30 28.74590 -94.68232 33928 ft 414 kts 314°
2026-05-05 15:31 28.78975 -94.72479 33926 ft 413 kts 314°
2026-05-05 15:31 28.83357 -94.76729 33909 ft 413 kts 314°
2026-05-05 15:32 28.87737 -94.80981 33948 ft 414 kts 314°
2026-05-05 15:32 28.92118 -94.85239 33929 ft 413 kts 314°
2026-05-05 15:33 28.96490 -94.89493 33916 ft 413 kts 314°
2026-05-05 15:33 29.00856 -94.93745 33917 ft 412 kts 314°
2026-05-05 15:34 29.05213 -94.97996 33919 ft 412 kts 314°
2026-05-05 15:34 29.09576 -95.02256 33924 ft 412 kts 314°
2026-05-05 15:35 29.13942 -95.06524 33917 ft 413 kts 314°
2026-05-05 15:35 29.18305 -95.10794 33926 ft 413 kts 314°
2026-05-05 15:36 29.22671 -95.15072 33917 ft 412 kts 313°
2026-05-05 15:36 29.27004 -95.19322 33912 ft 412 kts 313°
2026-05-05 15:37 29.31356 -95.23596 33912 ft 412 kts 313°
2026-05-05 15:37 29.35703 -95.27871 33914 ft 412 kts 313°
2026-05-05 15:38 29.40054 -95.32154 33915 ft 411 kts 313°
2026-05-05 15:38 29.44397 -95.36434 33935 ft 412 kts 313°
2026-05-05 15:39 29.48742 -95.40722 33930 ft 412 kts 313°
2026-05-05 15:39 29.53086 -95.45013 33918 ft 411 kts 313°
2026-05-05 15:40 29.57420 -95.49300 33882 ft 411 kts 313°
2026-05-05 15:40 29.61748 -95.53585 33883 ft 410 kts 313°
2026-05-05 15:41 29.66072 -95.57873 33874 ft 410 kts 313°
2026-05-05 15:41 29.70391 -95.62160 33872 ft 410 kts 313°
2026-05-05 15:42 29.74686 -95.66428 33892 ft 410 kts 313°
2026-05-05 15:42 29.78996 -95.70718 33874 ft 409 kts 313°
2026-05-05 15:43 29.83309 -95.75014 33896 ft 409 kts 312°
2026-05-05 15:43 29.87680 -95.79236 33888 ft 414 kts 316°
2026-05-05 15:44 29.92427 -95.83037 33874 ft 416 kts 318°
2026-05-05 15:44 29.97222 -95.86774 33857 ft 416 kts 318°
2026-05-05 15:45 30.02002 -95.90538 33834 ft 416 kts 318°
2026-05-05 15:45 30.06764 -95.94323 33769 ft 415 kts 317°
2026-05-05 15:46 30.11513 -95.98115 33732 ft 415 kts 317°
2026-05-05 15:46 30.16258 -96.01910 33687 ft 414 kts 317°
2026-05-05 15:47 30.20996 -96.05704 33685 ft 414 kts 317°
2026-05-05 15:47 30.25707 -96.09481 33688 ft 414 kts 317°
2026-05-05 15:48 30.30446 -96.13284 33683 ft 414 kts 317°
2026-05-05 15:48 30.35180 -96.17088 33720 ft 414 kts 317°
2026-05-05 15:49 30.39912 -96.20894 33770 ft 414 kts 317°
2026-05-05 15:49 30.44637 -96.24700 33817 ft 414 kts 317°
2026-05-05 15:50 30.49369 -96.28516 33858 ft 414 kts 317°
2026-05-05 15:50 30.54095 -96.32331 33872 ft 414 kts 317°
2026-05-05 15:51 30.58820 -96.36151 33866 ft 414 kts 317°
2026-05-05 15:51 30.63548 -96.39977 33874 ft 414 kts 317°
2026-05-05 15:52 30.68272 -96.43805 33904 ft 414 kts 317°
2026-05-05 15:52 30.72965 -96.47613 33884 ft 414 kts 316°
2026-05-05 15:53 30.77699 -96.51458 33854 ft 415 kts 316°
2026-05-05 15:53 30.82437 -96.55312 33827 ft 416 kts 316°
2026-05-05 15:54 30.87179 -96.59173 33867 ft 416 kts 316°
2026-05-05 15:54 30.91917 -96.63035 33872 ft 415 kts 316°
2026-05-05 15:54 30.94288 -96.64970 33731 ft 415 kts 316°
2026-05-05 15:55 30.96654 -96.66901 33725 ft 415 kts 316°
2026-05-05 15:55 31.01384 -96.70768 33746 ft 415 kts 316°
2026-05-05 15:56 31.06107 -96.74633 33748 ft 415 kts 316°
2026-05-05 15:56 31.10838 -96.78510 33755 ft 415 kts 316°
2026-05-05 15:57 31.15560 -96.82384 33753 ft 415 kts 316°
2026-05-05 15:57 31.20279 -96.86259 33764 ft 414 kts 316°
2026-05-05 15:58 31.24185 -96.89490 33769 ft 413 kts 315°
2026-05-05 15:58 31.28768 -96.93529 33770 ft 412 kts 314°
2026-05-05 15:59 31.34049 -96.98277 33813 ft 412 kts 314°
2026-05-05 15:59 31.37864 -97.01694 33812 ft 412 kts 314°
2026-05-05 16:00 31.42434 -97.05773 33810 ft 412 kts 314°
2026-05-05 16:00 31.46965 -97.09816 33820 ft 412 kts 314°
2026-05-05 16:01 31.51527 -97.13890 33839 ft 412 kts 314°
2026-05-05 16:01 31.56088 -97.17969 33842 ft 412 kts 314°
2026-05-05 16:02 31.60652 -97.22056 33865 ft 413 kts 314°
2026-05-05 16:02 31.65216 -97.26149 33808 ft 413 kts 314°
2026-05-05 16:03 31.69789 -97.30254 33799 ft 414 kts 314°
2026-05-05 16:03 31.74361 -97.34363 33799 ft 414 kts 314°
2026-05-05 16:04 31.78943 -97.38487 33793 ft 414 kts 314°
2026-05-05 16:04 31.83517 -97.42608 33793 ft 414 kts 314°
2026-05-05 16:05 31.88085 -97.46730 33799 ft 414 kts 313°
2026-05-05 16:05 31.92657 -97.50861 33798 ft 414 kts 313°
2026-05-05 16:06 31.97225 -97.54994 33778 ft 414 kts 313°
2026-05-05 16:06 32.01797 -97.59135 33793 ft 414 kts 313°
2026-05-05 16:07 32.06371 -97.63284 33773 ft 415 kts 313°
2026-05-05 16:07 32.10938 -97.67432 33774 ft 415 kts 313°
2026-05-05 16:08 32.15484 -97.71565 33782 ft 415 kts 313°
2026-05-05 16:08 32.20046 -97.75719 33761 ft 414 kts 313°
2026-05-05 16:09 32.24598 -97.79869 33770 ft 413 kts 313°
2026-05-05 16:09 32.29139 -97.84016 33775 ft 412 kts 313°
2026-05-05 16:10 32.33675 -97.88162 33783 ft 412 kts 313°
2026-05-05 16:10 32.38132 -97.92384 33790 ft 406 kts 308°
2026-05-05 16:11 32.42145 -97.97017 33768 ft 402 kts 306°
2026-05-05 16:12 32.50063 -98.06368 33761 ft 402 kts 306°
2026-05-05 16:13 32.60040 -98.18041 33753 ft 403 kts 306°
2026-05-05 16:13 32.64034 -98.22719 33757 ft 404 kts 306°
2026-05-05 16:14 32.71987 -98.32048 33745 ft 402 kts 306°
2026-05-05 16:15 32.79946 -98.41415 33741 ft 403 kts 306°
2026-05-05 16:16 32.87920 -98.50822 33729 ft 404 kts 306°
2026-05-05 16:17 32.93903 -98.57896 33715 ft 404 kts 306°
2026-05-05 16:18 32.99880 -98.64979 33701 ft 404 kts 306°
2026-05-05 16:19 33.05849 -98.72066 33741 ft 403 kts 306°
2026-05-05 16:19 33.11783 -98.79127 33739 ft 404 kts 306°
2026-05-05 16:20 33.19747 -98.88626 33704 ft 405 kts 305°
2026-05-05 16:22 33.30202 -99.00015 33697 ft 418 kts 315°
2026-05-05 16:23 33.39829 -99.07853 33694 ft 417 kts 315°
2026-05-05 16:23 33.47004 -99.13758 33674 ft 417 kts 314°
2026-05-05 16:24 33.51751 -99.17680 33674 ft 417 kts 314°
2026-05-05 16:25 33.58920 -99.23614 33674 ft 417 kts 314°
2026-05-05 16:25 33.66096 -99.29564 33684 ft 418 kts 314°
2026-05-05 16:26 33.75664 -99.37516 33677 ft 418 kts 314°
2026-05-05 16:27 33.80447 -99.41499 33690 ft 418 kts 314°
2026-05-05 16:27 33.85221 -99.45480 33702 ft 418 kts 314°
2026-05-05 16:28 33.89971 -99.49448 33707 ft 418 kts 314°
2026-05-05 16:28 33.94742 -99.53438 33700 ft 418 kts 314°
2026-05-05 16:29 33.99512 -99.57433 33710 ft 417 kts 314°
2026-05-05 16:29 34.04277 -99.61429 33714 ft 417 kts 314°
2026-05-05 16:30 34.09039 -99.65429 33719 ft 417 kts 314°
2026-05-05 16:30 34.13798 -99.69430 33733 ft 416 kts 313°
2026-05-05 16:31 34.18539 -99.73422 33736 ft 415 kts 313°
2026-05-05 16:31 34.23269 -99.77411 33736 ft 414 kts 313°
2026-05-05 16:32 34.27949 -99.81364 33739 ft 413 kts 313°
2026-05-05 16:32 34.32659 -99.85348 33745 ft 413 kts 313°
2026-05-05 16:33 34.37365 -99.89335 33769 ft 413 kts 313°
2026-05-05 16:33 34.42062 -99.93317 33776 ft 412 kts 313°
2026-05-05 16:34 34.46754 -99.97302 33760 ft 411 kts 313°
2026-05-05 16:34 34.51433 -100.01282 33761 ft 411 kts 313°
2026-05-05 16:35 34.56118 -100.05272 33771 ft 411 kts 313°
2026-05-05 16:35 34.60789 -100.09257 33778 ft 410 kts 312°
2026-05-05 16:36 34.65457 -100.13243 33780 ft 410 kts 312°
2026-05-05 16:36 34.70096 -100.17210 33781 ft 409 kts 312°
2026-05-05 16:37 34.74748 -100.21195 33796 ft 409 kts 312°
2026-05-05 16:37 34.79403 -100.25190 33793 ft 410 kts 311°
2026-05-05 16:38 34.84063 -100.29192 33796 ft 410 kts 311°
2026-05-05 16:38 34.88730 -100.33196 33793 ft 410 kts 311°
2026-05-05 16:39 34.93399 -100.37197 33787 ft 410 kts 311°
2026-05-05 16:39 34.98062 -100.41199 33789 ft 410 kts 311°
2026-05-05 16:40 35.02728 -100.45211 33797 ft 410 kts 311°
2026-05-05 16:40 35.07386 -100.49224 33805 ft 410 kts 312°
2026-05-05 16:41 35.12050 -100.53247 33803 ft 410 kts 311°
2026-05-05 16:41 35.16710 -100.57272 33804 ft 410 kts 311°
2026-05-05 16:42 35.21338 -100.61277 33802 ft 411 kts 311°
2026-05-05 16:42 35.26005 -100.65321 33809 ft 411 kts 311°
2026-05-05 16:43 35.30684 -100.69381 33814 ft 413 kts 311°
2026-05-05 16:43 35.35379 -100.73461 33827 ft 414 kts 311°
2026-05-05 16:44 35.40080 -100.77550 33859 ft 414 kts 311°
2026-05-05 16:44 35.44782 -100.81646 33892 ft 415 kts 311°
2026-05-05 16:45 35.49484 -100.85748 33908 ft 415 kts 311°
2026-05-05 16:45 35.54177 -100.89849 33953 ft 414 kts 311°
2026-05-05 16:46 35.58840 -100.93931 33955 ft 414 kts 311°
2026-05-05 16:46 35.62768 -100.97374 33953 ft 414 kts 311°
2026-05-05 16:47 35.68224 -101.02162 33956 ft 414 kts 311°
2026-05-05 16:47 35.72150 -101.05613 33936 ft 414 kts 311°
2026-05-05 16:48 35.76837 -101.09741 33916 ft 416 kts 310°
2026-05-05 16:48 35.81551 -101.13897 33893 ft 417 kts 311°
2026-05-05 16:49 35.86279 -101.18069 33849 ft 418 kts 310°
2026-05-05 16:49 35.90947 -101.22245 33848 ft 415 kts 309°
2026-05-05 16:50 35.95533 -101.26564 33847 ft 414 kts 309°
2026-05-05 16:50 36.00102 -101.30914 33874 ft 415 kts 309°
2026-05-05 16:51 36.04696 -101.35276 33868 ft 418 kts 309°
2026-05-05 16:51 36.09328 -101.39665 33866 ft 420 kts 309°
2026-05-05 16:52 36.13969 -101.44060 33867 ft 421 kts 309°
2026-05-05 16:52 36.18634 -101.48483 33858 ft 421 kts 309°
2026-05-05 16:53 36.23270 -101.52889 33875 ft 423 kts 309°
2026-05-05 16:53 36.27946 -101.57339 33866 ft 425 kts 309°
2026-05-05 16:54 36.32633 -101.61805 33864 ft 425 kts 309°
2026-05-05 16:54 36.37323 -101.66280 33870 ft 425 kts 309°
2026-05-05 16:55 36.42012 -101.70764 33899 ft 426 kts 309°
2026-05-05 16:55 36.46717 -101.75272 33888 ft 427 kts 310°
2026-05-05 16:56 36.51427 -101.79788 33876 ft 428 kts 310°
2026-05-05 16:56 36.56140 -101.84314 33876 ft 428 kts 310°
2026-05-05 16:57 36.60852 -101.88847 33892 ft 428 kts 310°
2026-05-05 16:57 36.65560 -101.93384 33905 ft 428 kts 310°
2026-05-05 16:58 36.70268 -101.97927 33916 ft 427 kts 310°
2026-05-05 16:58 36.74933 -102.02436 33926 ft 427 kts 310°
2026-05-05 16:59 36.79618 -102.06972 33948 ft 426 kts 310°
2026-05-05 16:59 36.84306 -102.11520 33948 ft 426 kts 310°
2026-05-05 17:00 36.88998 -102.16078 33953 ft 427 kts 310°
2026-05-05 17:00 36.93680 -102.20633 33885 ft 426 kts 310°
2026-05-05 17:01 36.98360 -102.25194 33886 ft 427 kts 310°
2026-05-05 17:01 37.03039 -102.29761 33883 ft 427 kts 310°
2026-05-05 17:02 37.07691 -102.34309 33927 ft 426 kts 310°
2026-05-05 17:02 37.12364 -102.38884 33896 ft 426 kts 310°
2026-05-05 17:03 37.17035 -102.43465 33889 ft 426 kts 309°
2026-05-05 17:03 37.21705 -102.48053 33887 ft 426 kts 309°
2026-05-05 17:04 37.26368 -102.52641 33889 ft 426 kts 309°
2026-05-05 17:04 37.31031 -102.57238 33900 ft 426 kts 309°
2026-05-05 17:05 37.35697 -102.61843 33894 ft 426 kts 309°
2026-05-05 17:05 37.40355 -102.66449 33891 ft 426 kts 309°
2026-05-05 17:06 37.45010 -102.71060 33897 ft 425 kts 309°
2026-05-05 17:06 37.49659 -102.75672 33896 ft 425 kts 309°
2026-05-05 17:07 37.54792 -102.79668 33925 ft 453 kts 324°
2026-05-05 17:07 37.60597 -102.82670 33915 ft 453 kts 324°
2026-05-05 17:08 37.66414 -102.85727 33906 ft 453 kts 324°
2026-05-05 17:08 37.72218 -102.88831 33908 ft 452 kts 323°
2026-05-05 17:09 37.78006 -102.91947 33926 ft 452 kts 323°
2026-05-05 17:09 37.83803 -102.95076 33913 ft 453 kts 323°
2026-05-05 17:10 37.89598 -102.98206 33917 ft 453 kts 323°
2026-05-05 17:10 37.95392 -103.01340 33961 ft 453 kts 323°
2026-05-05 17:11 38.01183 -103.04478 33964 ft 452 kts 323°
2026-05-05 17:11 38.06957 -103.07611 33944 ft 451 kts 323°
2026-05-05 17:12 38.12725 -103.10747 33943 ft 450 kts 323°
2026-05-05 17:12 38.18473 -103.13880 33966 ft 450 kts 323°
2026-05-05 17:13 38.24226 -103.17020 33949 ft 450 kts 323°
2026-05-05 17:13 38.29969 -103.20159 33947 ft 449 kts 323°
2026-05-05 17:14 38.35670 -103.23281 33934 ft 449 kts 323°
2026-05-05 17:14 38.41411 -103.26435 33945 ft 448 kts 323°
2026-05-05 17:15 38.47127 -103.29596 33952 ft 448 kts 322°
2026-05-05 17:15 38.52846 -103.32767 33946 ft 448 kts 322°
2026-05-05 17:16 38.58559 -103.35937 33980 ft 447 kts 322°
2026-05-05 17:16 38.61427 -103.37535 33490 ft 453 kts 323°
2026-05-05 17:16 38.64316 -103.39143 32870 ft 451 kts 323°
2026-05-05 17:17 38.67189 -103.40738 32173 ft 451 kts 323°
2026-05-05 17:17 38.70074 -103.42344 31442 ft 451 kts 323°
2026-05-05 17:17 38.72951 -103.43949 30703 ft 453 kts 323°
2026-05-05 17:17 38.75846 -103.45564 29891 ft 453 kts 324°
2026-05-05 17:18 38.78736 -103.47179 28974 ft 454 kts 324°
2026-05-05 17:18 38.81502 -103.49073 28126 ft 444 kts 313°
2026-05-05 17:18 38.83678 -103.51779 27359 ft 434 kts 303°
2026-05-05 17:18 38.85686 -103.54703 26402 ft 437 kts 303°
2026-05-05 17:19 38.87699 -103.57631 25536 ft 437 kts 304°
2026-05-05 17:19 38.89714 -103.60530 24866 ft 432 kts 305°
2026-05-05 17:19 38.91712 -103.63382 24183 ft 428 kts 306°
2026-05-05 17:19 38.93674 -103.66171 23498 ft 424 kts 306°
2026-05-05 17:20 38.95649 -103.68976 22728 ft 423 kts 307°
2026-05-05 17:20 38.97622 -103.71783 22016 ft 424 kts 307°
2026-05-05 17:20 38.99590 -103.74581 21356 ft 419 kts 307°
2026-05-05 17:20 39.01534 -103.77348 20670 ft 416 kts 308°
2026-05-05 17:21 39.03459 -103.80092 20024 ft 412 kts 308°
2026-05-05 17:21 39.05343 -103.82778 19879 ft 398 kts 308°
2026-05-05 17:21 39.07195 -103.85425 19704 ft 394 kts 308°
2026-05-05 17:22 39.10744 -103.90497 19368 ft 369 kts 308°
2026-05-05 17:22 39.12434 -103.92915 19203 ft 358 kts 308°
2026-05-05 17:22 39.14088 -103.95300 18792 ft 356 kts 308°
2026-05-05 17:22 39.15723 -103.97675 18402 ft 353 kts 308°
2026-05-05 17:23 39.17346 -104.00038 17948 ft 352 kts 308°
2026-05-05 17:23 39.18965 -104.02394 17501 ft 350 kts 308°
2026-05-05 17:23 39.20573 -104.04736 17062 ft 348 kts 308°
2026-05-05 17:23 39.22173 -104.07065 16623 ft 346 kts 309°
2026-05-05 17:24 39.23759 -104.09376 16201 ft 343 kts 309°
2026-05-05 17:24 39.25322 -104.11653 16023 ft 334 kts 309°
2026-05-05 17:24 39.26846 -104.13873 15864 ft 325 kts 308°
2026-05-05 17:24 39.28325 -104.16030 15728 ft 316 kts 308°
2026-05-05 17:25 39.29708 -104.18176 15585 ft 306 kts 300°
2026-05-05 17:25 39.30322 -104.19786 15405 ft 300 kts 287°
2026-05-05 17:25 39.30968 -104.23268 14992 ft 296 kts 280°
2026-05-05 17:25 39.31363 -104.25873 14696 ft 295 kts 279°
2026-05-05 17:26 39.31754 -104.28469 14391 ft 294 kts 279°
2026-05-05 17:26 39.32151 -104.31061 14083 ft 293 kts 280°
2026-05-05 17:26 39.32553 -104.33645 13772 ft 293 kts 280°
2026-05-05 17:26 39.32956 -104.36201 13440 ft 286 kts 280°
2026-05-05 17:27 39.33339 -104.38619 13319 ft 271 kts 280°
2026-05-05 17:27 39.33710 -104.40959 13198 ft 263 kts 279°
2026-05-05 17:27 39.34074 -104.43258 13097 ft 260 kts 279°
2026-05-05 17:27 39.34436 -104.45556 12831 ft 262 kts 279°
2026-05-05 17:28 39.34798 -104.47867 12565 ft 262 kts 279°
2026-05-05 17:28 39.35158 -104.50167 12339 ft 259 kts 279°
2026-05-05 17:28 39.35513 -104.52427 12220 ft 253 kts 279°
2026-05-05 17:28 39.35857 -104.54627 12103 ft 247 kts 279°
2026-05-05 17:29 39.36197 -104.56809 11985 ft 247 kts 279°
2026-05-05 17:29 39.36561 -104.58972 11923 ft 245 kts 285°
2026-05-05 17:29 39.37345 -104.60909 11929 ft 242 kts 299°
2026-05-05 17:29 39.38233 -104.62738 11943 ft 238 kts 299°
2026-05-05 17:30 39.39362 -104.64316 11948 ft 246 kts 324°
2026-05-05 17:30 39.40891 -104.65378 11970 ft 253 kts 329°
2026-05-05 17:30 39.42485 -104.66369 11963 ft 256 kts 339°
2026-05-05 17:30 39.44263 -104.66575 11990 ft 258 kts 359°
2026-05-05 17:31 39.46060 -104.66521 11975 ft 258 kts 358°
2026-05-05 17:31 39.47561 -104.66491 11978 ft 258 kts 358°
2026-05-05 17:31 39.49359 -104.66462 11926 ft 260 kts 357°
2026-05-05 17:31 39.51215 -104.66438 11524 ft 271 kts 358°
2026-05-05 17:32 39.53110 -104.66414 11176 ft 275 kts 358°
2026-05-05 17:32 39.55044 -104.66390 10809 ft 280 kts 359°
2026-05-05 17:32 39.56985 -104.66367 10442 ft 285 kts 359°
2026-05-05 17:32 39.58986 -104.66343 10056 ft 290 kts
2026-05-05 17:33 39.61024 -104.66318 9647 ft 295 kts
2026-05-05 17:33 39.63059 -104.66293 9414 ft 289 kts
2026-05-05 17:33 39.65058 -104.66269 9040 ft 284 kts
2026-05-05 17:33 39.67023 -104.66246 8650 ft 281 kts
2026-05-05 17:34 39.68963 -104.66222 8276 ft 277 kts
2026-05-05 17:34 39.70226 -104.66208 8024 ft 269 kts
2026-05-05 17:34 39.72044 -104.66187 7665 ft 253 kts
2026-05-05 17:34 39.73744 -104.66167 7359 ft 235 kts
2026-05-05 17:35 39.75324 -104.66148 7054 ft 219 kts
2026-05-05 17:35 39.76790 -104.66130 6787 ft 203 kts
2026-05-05 17:35 39.78149 -104.66114 6525 ft 186 kts
2026-05-05 17:35 39.79364 -104.66099 6254 ft 166 kts
2026-05-05 17:36 39.80470 -104.66084 5987 ft 158 kts
2026-05-05 17:36 39.81561 -104.66071 5754 ft 155 kts
2026-05-05 17:36 39.82645 -104.66063 5534 ft 157 kts
2026-05-05 17:36 39.83709 -104.66047 5417 ft 143 kts
2026-05-05 17:37 39.84561 -104.66037 5410 ft 101 kts
2026-05-05 17:37 39.85089 -104.66045 5392 ft 49 kts 352°
2026-05-05 17:37 39.85265 -104.66141 5390 ft 15 kts 322°
2026-05-05 17:37 39.85294 -104.66264 5398 ft 15 kts 270°
2026-05-05 17:38 39.85294 -104.66398 5390 ft 17 kts 270°
2026-05-05 17:38 39.85283 -104.66554 5384 ft 17 kts 240°
2026-05-05 17:38 39.85274 -104.66707 5386 ft 17 kts 271°
2026-05-05 17:38 39.85275 -104.66856 5386 ft 16 kts 270°
2026-05-05 17:39 39.85275 -104.66998 5385 ft 16 kts 270°
2026-05-05 17:39 39.85276 -104.67138 5385 ft 15 kts 270°
2026-05-05 17:39 39.85277 -104.67269 5385 ft 14 kts 271°
2026-05-05 17:39 39.85304 -104.67322 5385 ft 6 kts
2026-05-05 17:40 39.85326 -104.67309 5383 ft 2 kts 30°
2026-05-05 17:40 39.85332 -104.67305 5385 ft 0 kts 31°